Location: Kellogg
(38.0159°N, 90.0546°W)
Time: 00:43:44
(UTC+00:00)

Vanguard 2 - Pass Details

Date: 27 September 2024
Orbit: 552 x 2910 km, 32.9° (Epoch: 15 October)

Event Time Altitude Azimuth Distance (km) Brightness Sun altitude
Rises 09:19:57 0° 266° (W) 2,713 - -30.2°
Reaches altitude 10° 09:22:13 10° 254° (WSW) 1,857 - -29.8°
Maximum altitude 09:25:48 29° 192° (SSW) 1,151 - -29.1°
Exits shadow 09:28:11 20° 147° (SSE) 1,626 9.2 -28.7°
Drops below altitude 10° 09:30:16 10° 132° (SE) 2,346 10.3 -28.3°
Sets 09:33:31 0° 122° (ESE) 3,591 11.4 -27.7°
